Location: *
(49.2333°S, 177.3500°W)
Time: 21:05:07
(UTC+00:00)

Daily predictions for brighter satellites

Satellite Brightness Start Highest point End
(mag) Time Altitude Azimuth Time Altitude Azimuth Time Altitude Azimuth
Cosmos 2333 Rocket 3.8 15:58:41 27° NE 15:58:41 27° NE 16:01:14 10° NE
CENTAUR R/B 3.6 16:11:22 37° S 16:11:22 37° S 16:15:39 10° SE
Cosmos 2219 3.8 16:20:37 52° NE 16:20:58 53° ENE 16:26:31 10° SE
USA 215 3.8 16:18:04 10° ESE 16:24:17 46° S 16:24:30 46° S
SMAP 4.3 16:26:48 10° NE 16:31:10 40° ESE 16:31:57 37° SE
Cosmos 1725 Rocket 4.1 16:25:44 10° N 16:31:58 76° E 16:38:16 10° SSE
CZ-4 R/B 3.4 16:39:51 10° NE 16:43:30 29° ESE 16:45:30 20° SSE
Meteor 2-4 Rocket 4.5 16:38:53 10° NNE 16:44:09 50° E 16:49:24 10° SSE
Cosmos 2297 Rocket 3.7 16:40:45 10° N 16:45:49 35° ENE 16:50:57 10° SE
Cosmos 1980 3.6 16:49:28 84° W 16:49:32 85° WNW 16:55:15 10° NNE
NOSS 0 Rocket 3.8 16:49:57 68° NW 16:49:57 68° NW 16:55:52 10° NNE
ATLAS 3B R/B 4.0 16:49:53 25° SSW 16:50:47 26° S 16:56:52 10° SE
MOS 1-B Rocket 4.2 16:46:19 10° NNE 16:52:37 88° WNW 17:00:05 10° SSW
SL-16 R/B 3.0 16:50:45 29° S 16:53:16 47° SE 16:58:45 10° NE
Cosmos 2227 Rocket 3.3 16:49:03 10° N 16:54:23 44° ENE 16:59:46 10° SE
Cosmos 2237 Rocket 2.0 16:59:13 73° WSW 16:59:38 77° WNW 17:05:17 10° NNE
Cosmos 1818 3.4 17:04:20 67° NW 17:05:05 83° SW 17:10:33 10° SE
Cosmos 2219 Rocket 3.5 17:09:07 25° NNW 17:09:07 25° NNW 17:11:53 10° N
Cosmos 783 Rocket 4.4 17:06:09 24° NNW 17:09:25 88° ENE 17:14:43 10° SSE
Cosmos 1455 Rocket 3.0 17:09:45 80° N 17:09:45 80° N 17:13:54 10° N
Cosmos 1864 Rocket 4.5 17:07:16 10° NNW 17:13:33 58° WSW 17:19:51 10° S
Ariane Rocket 3.5 17:11:53 10° NNE 17:16:54 60° ESE 17:21:40 12° S
METEOR-M 4.1 17:15:56 10° NNE 17:21:19 89° WNW 17:25:43 16° SSW
CSL-04 Debris 4.1 17:19:41 10° NNE 17:25:08 86° ESE 17:30:06 13° SSW
Tsikada Rocket 4.3 17:28:22 39° WSW 17:28:51 40° W 17:34:37 10° NNW
Cosmos 2082 4.2 17:24:35 10° N 17:30:08 61° ENE 17:35:46 10° SE
COSMO-SKYMED 1 4.2 17:27:14 10° SSE 17:31:22 37° E 17:35:27 10° NNE
ARGOS Delta rocket 4.2 17:29:03 10° SSE 17:34:20 80° ENE 17:39:47 10° N
Cosmos 2333 Rocket 3.5 17:40:45 21° WNW 17:40:45 21° WNW 17:43:42 10° NNW
Cosmos 1544 Rocket 3.9 17:40:44 43° W 17:40:44 43° W 17:44:51 10° NNW
COSMOS 2455 2.8 17:37:15 17° NW 17:41:57 64° SW 17:48:00 10° SSE
Meteor 1-23 Rocket 4.2 17:40:06 10° N 17:45:56 89° W 17:51:46 10° SSE
Cosmos 1356 Rocket 3.6 17:42:03 10° N 17:46:08 73° E 17:50:21 10° SSE
Iridium 2 3.6 17:48:50 10° NNW 17:52:38 65° W 17:56:32 10° S
CORIOLIS 4.3 17:48:13 10° N 17:53:31 51° W 17:58:12 13° SSW
ALOS 2.2 17:49:27 10° N 17:54:08 65° W 17:58:30 12° SSW
USA 229 DEB 4.2 17:48:01 10° NNW 17:55:24 71° NE 18:02:37 10° SE
USA 229 4.2 17:48:08 10° NNW 17:55:31 70° NE 18:02:44 10° SE
USA 32 4.0 17:55:41 10° S 18:01:01 75° W 18:06:17 10° N
CENTAUR R/B 3.8 17:58:34 19° SW 18:01:23 25° SSW 18:06:32 10° SE
SeaSat 1 4.0 17:57:06 10° SE 18:01:46 38° ENE 18:06:23 10° N
CSL-04 Rocket 4.0 17:58:38 10° N 18:03:52 45° W 18:09:14 10° SSW
Cosmos 1544 3.3 18:01:02 10° S 18:04:51 77° E 18:08:36 10° NNE
Cosmos 2219 3.9 18:02:38 22° W 18:05:24 33° SW 18:10:34 10° SSE
USA 215 3.5 18:00:16 10° ENE 18:06:47 66° SSE 18:11:51 18° SW
Cosmos 1464 Rocket 3.9 18:01:04 10° NNW 18:07:19 79° W 18:13:44 10° S
SMAP 4.0 18:04:33 10° NNW 18:08:37 28° W 18:10:25 22° WSW
Cosmos 1943 4.3 18:04:32 10° SSW 18:09:55 40° SE 18:15:16 10° ENE
Cosmos 1536 Rocket 3.7 18:07:17 10° NNW 18:11:32 48° WSW 18:15:53 10° S
Cosmos 1515 4.4 18:10:35 10° NW 18:14:08 32° WSW 18:17:43 10° S
Cosmos 773 Rocket 4.0 18:09:32 10° NW 18:14:47 64° WSW 18:20:03 10° SSE
YAOGAN 1 2.8 18:13:47 10° N 18:18:01 48° W 18:22:19 10° SSW
CZ-4 R/B 2.2 18:14:35 10° NNW 18:18:26 34° W 18:21:33 15° SW
FENGYUN 3A 4.0 18:13:27 10° N 18:18:38 46° W 18:23:53 10° SSW
SKYMED 2 3.5 18:15:03 10° S 18:19:30 77° WSW 18:23:53 10° NNW
Cosmos 1891 Rocket 4.4 18:14:03 10° NNW 18:20:06 71° WSW 18:26:15 10° S
MONITOR-E 4.1 18:17:28 10° N 18:20:30 61° W 18:23:13 13° SSW
Cosmos 2034 Rocket 4.0 18:17:13 10° NNW 18:23:36 80° W 18:29:58 10° S
Envisat 4.0 18:18:54 10° NE 18:23:49 48° ESE 18:28:47 10° S
Nadezhda 4 Rocket 3.9 18:18:12 10° SSW 18:24:25 78° W 18:30:37 10° N
Meteor 2-4 Rocket 4.5 18:22:46 10° WNW 18:27:25 28° WSW 18:32:03 10° S
FengYun 1-2 T 4.4 18:22:38 10° NNE 18:28:18 86° ESE 18:34:05 10° SSW
USA 116 3.9 18:25:24 10° S 18:28:47 42° WSW 18:32:29 10° NW
Cosmos 2297 Rocket 2.5 18:24:15 10° NW 18:29:44 47° SW 18:35:17 10° SSE
Okean 1-7 Rocket 3.9 18:26:07 10° N 18:30:40 74° E 18:35:18 10° SSE
Cosmos 1805 3.8 18:29:00 10° S 18:32:59 61° ESE 18:36:54 10° NNE
Cosmos 1953 4.4 18:32:26 10° S 18:36:03 28° ESE 18:39:37 10° NE
SL-16 R/B 2.9 18:32:39 12° SW 18:37:15 34° WNW 18:42:19 10° N
Cosmos 2227 Rocket 2.7 18:33:15 10° WNW 18:38:32 38° SW 18:43:52 10° SSE
CZ-2C R/B 3.8 18:33:46 10° S 18:38:35 65° WSW 18:43:22 10° NNW
Cosmos 1766 3.2 18:36:27 10° SSW 18:40:27 79° W 18:44:23 10° N
Cosmos 2237 Rocket 3.9 18:41:05 12° WSW 18:42:43 13° W 18:45:16 10° WNW
ATLAS 3B R/B 4.0 18:37:18 10° SW 18:43:48 32° SSE 18:50:26 10° E
Cosmos 1371 Rocket 4.1 18:38:50 10° SSW 18:44:18 85° WNW 18:49:43 10° NNE
Cosmos 1025 Rocket 3.3 18:40:26 10° NNW 18:44:35 45° WSW 18:48:49 10° S
Cosmos 2026 Rocket 4.4 18:39:52 10° S 18:46:23 73° E 18:52:46 10° NNE
Cosmos 1606 Rocket 3.6 18:42:23 10° SSW 18:46:47 64° W 18:51:07 10° N
Cosmos 1842 4.0 18:43:39 10° N 18:47:36 59° E 18:51:36 10° SSE
Meteor 1-22 Rocket 4.4 18:42:30 10° SSW 18:48:36 68° W 18:54:25 10° N
Cosmos 1092 Rocket 4.0 18:44:06 10° SSW 18:50:22 73° W 18:56:40 10° N
EO 1 Del DPAF 4.4 18:48:52 10° SSE 18:52:41 49° E 18:56:27 10° N
Okean 2 4.3 18:50:33 10° NW 18:54:09 28° WSW 18:57:49 10° S
SPOT 3 Rocket 3.7 18:51:01 10° N 18:56:09 59° WNW 19:01:21 10° SSW
Ariane Rocket 4.3 18:52:24 10° NW 18:56:15 21° W 19:00:10 10° SW
SJ-6B 3.1 18:53:19 10° NNE 18:57:16 73° ESE 19:01:12 10° S
Cosmos 2056 Rocket 3.6 18:52:20 10° SSW 18:57:50 82° WNW 19:03:12 10° NNE
Cosmos 1680 Rocket 3.5 18:54:46 10° NNW 19:00:05 69° WSW 19:05:27 10° SSE
Cosmos 1624 Rocket 4.0 18:56:47 10° SSW 19:02:03 73° WNW 19:07:16 10° NNE
Meteor 1-21 4.5 18:57:36 10° N 19:03:20 81° E 19:09:04 10° SSE
H-2A R/B 3.8 19:00:14 10° NNW 19:03:32 27° W 19:06:55 10° SW
COSMO-SKYMED 1 3.5 19:03:38 10° S 19:07:24 28° WSW 19:11:09 10° WNW
Genesis I 3.8 19:04:04 10° WNW 19:07:37 35° SW 19:11:10 10° SSE
Cosmos 2263 Rocket 3.6 19:03:28 10° N 19:08:44 44° ENE 19:14:04 10° SE
Cosmos 1470 3.7 19:05:16 10° S 19:09:16 53° ESE 19:13:11 10° NNE
Cosmos 923 Rocket 4.3 19:05:50 10° NW 19:11:00 46° WSW 19:16:14 10° SSE
NOSS 3-1 (C) 4.1 19:03:57 10° NW 19:12:20 76° SW 19:19:44 10° SE
